Location: Unspecified
(0.0000°N, 0.0000°E)
Time: 08:46:38
(UTC+00:00)

Courier 1B Rocket - Visible Passes

Search period start: 03 April 2020 00:00
Search period end: 13 April 2020 00:00
Orbit: 920 x 1202 km, 28.2° (Epoch: 02 April)

Date Brightness Start Highest point End Pass type
(mag) Time Alt. Az. Time Alt. Az. Time Alt. Az.
03 Apr 6.7 03:19:00 26° ENE 03:19:00 26° ENE 03:21:37 10° ENE visible
03 Apr 6.0 05:05:23 18° WNW 05:08:50 28° NNW 05:14:09 10° NNE visible
03 Apr 7.5 18:28:52 10° SW 18:32:47 14° SSW 18:36:40 10° S visible
04 Apr 5.5 04:08:24 43° NNW 04:08:24 43° NNW 04:13:40 10° NE visible
05 Apr 7.0 03:11:21 19° NE 03:11:21 19° NE 03:12:58 10° NE visible
05 Apr 6.5 04:57:43 14° NW 05:00:22 18° NNW 05:04:32 10° NNE visible
05 Apr 7.8 18:24:19 10° SSW 18:24:33 10° SSW 18:24:48 10° SSW visible
06 Apr 6.3 04:00:37 25° N 04:00:37 25° N 04:04:26 10° NNE visible
07 Apr 7.4 03:03:28 13° NE 03:03:28 13° NE 03:04:02 10° NE visible
07 Apr 6.9 04:49:55 10° NW 04:52:01 12° NNW 04:54:07 10° N visible
08 Apr 6.9 03:52:38 16° N 03:52:38 16° N 03:54:51 10° NNE visible
10 Apr 7.3 03:44:28 10° N 03:44:28 10° N 03:44:28 10° N visible
